星链-3174 (STARLINK-3174 )

导读 | 豆包AI

STARLINK-3174是美国太空探索技术公司(SpaceX)星链星座的卫星,于北京时间2022年2月3日8时发射。作为星链低轨互联网星座的组成部分,它运行于近地轨道,为全球偏远地区提供互联网接入服务,也支持低延迟通信应用。它是SpaceX大规模扩展星链星座的重要节点,推动全球卫星互联网组网进程。

基本信息
目录编号:
51468
目录名称:
STARLINK-3174
国际标识:
2022-010N
轨道中心:
EARTH
卫星名称:
星链-3174
卫星全名:
星链-3174 (STARLINK-3174 )
卫星状态:
在轨 (已飞行1548 天)
发射日期:
2022-02-03 UTC
国别 :
美国 (US)
星等 :
--
轨道信息
数据来源 国际轨道数据 AOE轨道数据
星历时间 2026-04-30T13:06:14+0800
19小时前
查看轨道信息
2026-04-28T16:00:00+0800
2天前
查看轨道信息
半长轴 6917.879km 6917.872km
偏心率 0.0001654 0.0001354
轨道倾角 53.217° 53.217°
近地点辐角 89.166° 83.902°
升交点赤经 47.784° 56.220°
平近点角 270.952° 142.518°
近地点 538.597km 538.798km
远地点 540.887km 540.672km
周期 95.438分钟 95.437分钟
每日圈数 15.088405 15.088429
详细信息
固有亮度:
5
最大亮度:
2.5
卫星平台:
Starlink v1.5
覆盖范围:
全球
运营商:
太空探索技术公司
运营商所在国:
美国
制造商(研发单位):
太空探索技术公司
制造商所在国:
美国
使用方式:
暂无
卫星简介
星链(Starlink)计划是由太空探索技术公司(SpaceX)提出的一个巨型低轨卫星互联网星座项目,计划在2019年至2024年间在太空搭建由约1.2万颗卫星组成的“星链”网络,其中1584颗将部署在地球上空550千米处的近地轨道,并从2020年开始工作。该卫星仍在工作。
2D轨道图
3D轨道图
轨道高度分析图
轨道倾角分析图
轨道综合分析图
查看轨道综合分析图